[[{"header":{"parameterUnit":"m.s-1","parameterCategory":1,"la1":30.2992,"la2":30.254,"lo1":-89.0895,"lo2":-89.0443,"dy":0.0025,"dx":0.0025,"nx":19,"ny":19,"refTime":"2026-03-14T09:00:00:Z","depth":0,"parameterNumber":2,"parameterNumberName":"U-component_of_WINDS"},"data":[0,0,0,-1.565,-1.5653,-1.5808,-1.5808,-1.5986,-1.5987,0,0,0,0,0,0,0,0,0,0,0,-1.5591,-1.5592,-1.565,-1.5654,-1.5808,-1.5808,-1.5985,-1.5987,0,0,0,0,0,0,0,0,0,0,0,-1.5591,-1.5592,-1.5593,-1.5654,-1.5807,-1.5809,-1.5985,-1.5876,0,0,0,0,0,0,0,0,0,0,-1.573,-1.5662,-1.5592,-1.5593,-1.5655,-1.5807,-1.5809,-1.5871,-1.5883,-1.5907,0,-1.5924,0,-1.5958,-1.5998,-1.5998,0,0,0,-1.5664,-1.5652,-1.5706,-1.5593,-1.5656,-1.5807,-1.5741,-1.5878,-1.5891,-1.5922,-1.5926,-1.5934,-1.5961,-1.5999,-1.5999,-1.6102,-1.6102,0,0,-1.5655,-1.5612,-1.5696,-1.5714,-1.5687,-1.5736,-1.5746,-1.5886,-1.5888,-1.5927,-1.5938,-1.5964,-1.6,-1.6001,-1.6102,-1.6102,0,0,0,-1.5624,-1.5606,-1.5656,-1.5706,-1.5735,-1.574,-1.5751,-1.5882,-1.5902,-1.594,-1.5966,-1.6,-1.6002,-1.6102,-1.6102,-1.606,0,0,0,-1.5619,-1.5588,-1.5652,-1.5627,-1.5732,-1.581,-1.5743,-1.5892,-1.591,-1.5965,-1.6001,-1.6004,-1.6102,-1.6102,-1.6061,-1.6047,0,0,0,-1.5586,-1.5584,-1.5602,-1.5625,-1.5689,-1.5809,-1.5838,-1.5897,-1.5925,-1.5998,-1.6004,-1.6102,-1.6102,-1.6063,-1.6049,-1.6062,0,0,0,-1.5538,-1.5562,-1.56,-1.5637,-1.5688,-1.5782,-1.5837,-1.591,-1.5967,-1.6001,-1.6102,-1.6102,-1.6063,-1.605,-1.6062,-1.6063,-1.606,0,0,-1.5544,-1.5561,-1.5586,-1.5625,-1.5701,-1.5762,-1.5832,-1.5926,-1.5973,-1.6057,-1.606,-1.6061,-1.6049,-1.6062,-1.6057,-1.6054,0,0,0,-1.5574,-1.5591,-1.5621,-1.5673,-1.5746,-1.5807,-1.5895,-1.5931,-1.6004,-1.6007,-1.6071,-1.6065,-1.6074,-1.6077,-1.6074,-1.6085,-1.6102,-1.6102,-1.6102,-1.5519,-1.5578,-1.5624,-1.5702,-1.5753,-1.5844,-1.5891,-1.5954,-1.5999,-1.6013,-1.6037,-1.6027,-1.6029,-1.6027,-1.6037,-1.6044,-1.6044,-1.6043,-1.6043,-1.5533,-1.5567,-1.5627,-1.5692,-1.5755,-1.5811,-1.5901,-1.5931,-1.5993,-1.6013,-1.6025,-1.604,-1.6022,-1.6034,-1.6041,-1.6041,-1.6042,-1.6042,-1.6042,-1.5503,-1.5529,-1.5572,-1.5655,-1.5714,-1.5793,-1.585,-1.5906,-1.5958,-1.5969,-1.6002,-1.6003,-1.601,-1.5981,-1.5981,-1.5981,-1.5981,-1.5981,-1.5981,-1.5454,-1.5504,-1.5545,-1.5624,-1.5666,-1.5729,-1.5823,-1.5866,-1.5928,-1.5965,-1.5965,-1.6008,-1.6009,-1.6008,-1.5981,-1.5981,-1.5981,-1.5981,-1.5981,-1.5444,-1.5455,-1.5518,-1.556,-1.566,-1.5714,-1.5785,-1.5869,-1.5913,-1.594,-1.5982,-1.5974,-1.5996,-1.5998,-1.5997,-1.5969,-1.5969,-1.5969,-1.5969,-1.5417,-1.5434,-1.5511,-1.5575,-1.5644,-1.5715,-1.5786,-1.586,-1.5939,-1.597,-1.5983,-1.5987,-1.5987,-1.6009,-1.6011,-1.6011,-1.5987,-1.5987,-1.5987,-1.5414,-1.5441,-1.5488,-1.5565,-1.5647,-1.5718,-1.5786,-1.5858,-1.595,-1.5989,-1.5996,-1.5995,-1.6003,-1.6002,-1.6038,-1.6041,-1.6042,0,0]},{"header":{"parameterUnit":"m.s-1","parameterCategory":1,"la1":30.2992,"la2":30.254,"lo1":-89.0895,"lo2":-89.0443,"dy":0.0025,"dx":0.0025,"nx":19,"ny":19,"refTime":"2026-03-14T09:00:00:Z","depth":0,"parameterNumber":3,"parameterNumberName":"V-component_of_WINDS"},"data":[0,0,0,6.0008,6.0012,6.0229,6.023,6.0479,6.0481,0,0,0,0,0,0,0,0,0,0,0,5.9925,5.9926,6.0007,6.0012,6.0229,6.023,6.0479,6.0481,0,0,0,0,0,0,0,0,0,0,0,5.9924,5.9926,5.9927,6.0013,6.0229,6.023,6.0478,6.0325,0,0,0,0,0,0,0,0,0,0,6.0119,6.0024,5.9925,5.9927,6.0014,6.0229,6.023,6.0318,6.0334,6.0368,0,6.0392,0,6.044,6.0496,6.0496,0,0,0,6.0026,6.001,6.0086,5.9927,6.0016,6.0228,6.0135,6.0328,6.0346,6.039,6.0396,6.0406,6.0444,6.0497,6.0498,6.0646,6.0646,0,0,6.0014,5.9954,6.0073,6.0097,6.006,6.0128,6.0142,6.0339,6.0342,6.0397,6.0412,6.0448,6.0499,6.05,6.0646,6.0646,0,0,0,5.997,5.9945,6.0016,6.0086,6.0127,6.0134,6.015,6.0333,6.0362,6.0415,6.0451,6.05,6.0503,6.0646,6.0646,6.059,0,0,0,5.9964,5.9919,6.001,5.9975,6.0123,6.0233,6.0139,6.0348,6.0372,6.045,6.05,6.0505,6.0646,6.0646,6.0592,6.0574,0,0,0,5.9917,5.9914,5.9939,5.9972,6.0063,6.0231,6.0271,6.0355,6.0394,6.0497,6.0505,6.0646,6.0646,6.0593,6.0576,6.0597,0,0,0,5.9849,5.9884,5.9937,5.9991,6.006,6.0194,6.027,6.0373,6.0454,6.0501,6.0646,6.0646,6.0594,6.0578,6.0598,6.0604,6.06,0,0,5.986,5.9883,5.992,5.9974,6.0083,6.0166,6.0268,6.0399,6.0464,6.0582,6.0586,6.0591,6.0576,6.0597,6.06,6.0596,0,0,0,5.9903,5.9929,5.9971,6.0046,6.0148,6.0235,6.0358,6.0407,6.0511,6.0512,6.0605,6.0599,6.0613,6.0619,6.0616,6.0634,6.0645,6.0645,6.0646,5.9831,5.9914,5.9981,6.009,6.0162,6.029,6.0357,6.0446,6.0506,6.0527,6.0563,6.0554,6.0559,6.0557,6.0574,6.0572,6.0572,6.0572,6.0571,5.9856,5.9906,5.9989,6.0084,6.0171,6.0252,6.0378,6.0419,6.0508,6.0533,6.0551,6.0572,6.0551,6.0571,6.0568,6.0569,6.0569,6.0569,6.057,5.9818,5.9857,5.9918,6.0038,6.0121,6.0231,6.0314,6.0391,6.0463,6.048,6.0528,6.0529,6.0542,6.0497,6.0497,6.0497,6.0497,6.0497,6.0497,5.9756,5.9827,5.9887,6.0,6.0061,6.015,6.0281,6.0343,6.0431,6.0481,6.0482,6.0542,6.0533,6.053,6.0497,6.0497,6.0497,6.0497,6.0497,5.9752,5.9767,5.9859,5.992,6.0062,6.0141,6.0239,6.0359,6.0422,6.0461,6.0519,6.0499,6.0528,6.0531,6.0529,6.0499,6.0499,6.0499,6.0499,5.9722,5.9745,5.9859,5.9952,6.0051,6.015,6.0255,6.0359,6.0468,6.0512,6.0528,6.0532,6.0531,6.0561,6.0564,6.0563,6.0542,6.0542,6.0542,5.9725,5.9762,5.9836,5.9943,6.0061,6.016,6.0263,6.0367,6.0494,6.0545,6.0549,6.0548,6.0555,6.0552,6.0603,6.0604,6.0605,0,0]}]]